Location: Zagreb
(45.8000°N, 16.0000°E)
Time: 15:48:11
(UTC+02:00)

Vanguard 1 - Pass Details

Date: 11 August 2022
Orbit: 649 x 3832 km, 34.2° (Epoch: 25 September)

Event Time Altitude Azimuth Distance (km) Brightness Sun altitude
Rises 13:13:47 0° 280° (W) 7,979 14.7 59.3°
Reaches altitude 10° 13:23:37 10° 261° (W) 6,783 14.6 59.0°
Maximum altitude 13:32:37 14° 237° (WSW) 5,996 14.6 58.7°
Drops below altitude 10° 13:40:32 10° 211° (SSW) 5,789 14.7 58.3°
Sets 13:47:38 0° 189° (S) 6,132 14.6 57.9°
